| time (UTC) | temp F | wind direction | speed MPH | gust MPH | rain 1hr in | rain 24hr in | rain mn in | humidity % | barometer mb |
| 20260902204045 | 62 | 70 | 0.0 | 5.0 | 0.00 | 0.05 | 0.05 | 89 | 1019.2 |
| 20260902203544 | 62 | 105 | 1.0 | 6.0 | 0.00 | 0.05 | 0.05 | 89 | 1019.4 |
| 20260902203058 | 62 | 0 | 1.0 | 6.0 | 0.00 | 0.05 | 0.05 | 88 | 1019.5 |
| 20260902202544 | 62 | 172 | 0.0 | 5.0 | 0.00 | 0.05 | 0.05 | 88 | 1019.5 |
| 20260902202046 | 63 | 232 | 1.0 | 6.0 | 0.00 | 0.05 | 0.05 | 87 | 1019.5 |
| 20260902201626 | 63 | 351 | 1.0 | 6.0 | 0.00 | 0.05 | 0.05 | 88 | 1019.4 |
| 20260902201045 | 63 | 262 | 0.0 | 4.0 | 0.00 | 0.05 | 0.05 | 87 | 1019.6 |
| 20260902200545 | 63 | 13 | 1.0 | 4.0 | 0.00 | 0.05 | 0.05 | 87 | 1019.5 |
| 20260902200108 | 63 | 299 | 1.0 | 4.0 | 0.00 | 0.05 | 0.05 | 87 | 1019.5 |
| 20260902195544 | 63 | 295 | 0.0 | 4.0 | 0.00 | 0.05 | 0.05 | 87 | 1019.4 |
| 20260902195044 | 63 | 300 | 0.0 | 4.0 | 0.00 | 0.05 | 0.05 | 86 | 1019.7 |
| 20260902194558 | 64 | 72 | 1.0 | 4.0 | 0.00 | 0.05 | 0.05 | 86 | 1019.8 |
| 20260902194045 | 64 | 284 | 0.0 | 3.0 | 0.00 | 0.05 | 0.05 | 85 | 1019.6 |
| 20260902193549 | 64 | 324 | 0.0 | 4.0 | 0.00 | 0.05 | 0.05 | 85 | 1019.7 |
| 20260902193101 | 64 | 37 | 0.0 | 4.0 | 0.00 | 0.05 | 0.05 | 84 | 1019.6 |
| 20260902192544 | 64 | 277 | 0.0 | 6.0 | 0.00 | 0.05 | 0.05 | 85 | 1019.7 |
| 20260902192045 | 64 | 227 | 1.0 | 6.0 | 0.00 | 0.05 | 0.05 | 83 | 1019.6 |
| 20260902191556 | 65 | 250 | 1.0 | 4.0 | 0.00 | 0.05 | 0.05 | 83 | 1019.5 |
| 20260902191044 | 65 | 249 | 1.0 | 8.0 | 0.00 | 0.05 | 0.05 | 82 | 1019.6 |
| 20260902190544 | 65 | 250 | 1.0 | 8.0 | 0.00 | 0.05 | 0.05 | 83 | 1019.7 |
| 20260902190100 | 66 | 307 | 1.0 | 6.0 | 0.00 | 0.05 | 0.05 | 82 | 1019.5 |
| 20260902185544 | 66 | 344 | 1.0 | 6.0 | 0.00 | 0.05 | 0.05 | 80 | 1019.7 |
| 20260902185041 | 66 | 299 | 1.0 | 6.0 | 0.00 | 0.05 | 0.05 | 83 | 1019.8 |
| 20260902184559 | 66 | 244 | 1.0 | 6.0 | 0.00 | 0.05 | 0.05 | 84 | 1019.9 |
| 20260902184045 | 65 | 343 | 0.0 | 3.0 | 0.00 | 0.05 | 0.05 | 84 | 1019.8 |
| 20260902183545 | 65 | 345 | 0.0 | 3.0 | 0.00 | 0.05 | 0.05 | 82 | 1019.8 |
| 20260902183103 | 65 | 300 | 0.0 | 2.0 | 0.00 | 0.05 | 0.05 | 83 | 1020.0 |
| 20260902182544 | 65 | 349 | 0.0 | 2.0 | 0.00 | 0.05 | 0.05 | 82 | 1020.3 |
| 20260902182045 | 65 | 228 | 1.0 | 2.0 | 0.00 | 0.05 | 0.05 | 81 | 1020.1 |
| 20260902181557 | 65 | 243 | 0.0 | 6.0 | 0.00 | 0.05 | 0.05 | 82 | 1020.2 |
| 20260902181044 | 65 | 163 | 1.0 | 6.0 | 0.00 | 0.05 | 0.05 | 82 | 1020.4 |
| 20260902180541 | 66 | 0 | 1.0 | 3.0 | 0.00 | 0.05 | 0.05 | 83 | 1020.2 |
| 20260902180055 | 65 | 274 | 1.0 | 3.0 | 0.00 | 0.05 | 0.05 | 82 | 1020.1 |
| 20260902175545 | 65 | 276 | 0.0 | 3.0 | 0.00 | 0.05 | 0.05 | 82 | 1020.5 |
| 20260902175045 | 65 | 275 | 0.0 | 6.0 | 0.00 | 0.05 | 0.05 | 82 | 1020.5 |
| 20260902174603 | 65 | 0 | 1.0 | 6.0 | 0.00 | 0.05 | 0.05 | 81 | 1020.4 |
| 20260902174048 | 66 | 340 | 0.0 | 4.0 | 0.00 | 0.05 | 0.05 | 81 | 1020.2 |
| 20260902173545 | 66 | 281 | 0.0 | 5.0 | 0.00 | 0.05 | 0.05 | 82 | 1020.4 |
| 20260902173059 | 66 | 275 | 0.0 | 5.0 | 0.00 | 0.05 | 0.05 | 83 | 1020.5 |
| 20260902172541 | 66 | 283 | 0.0 | 4.0 | 0.00 | 0.05 | 0.05 | 82 | 1020.3 |
| 20260902172046 | 65 | 319 | 0.0 | 4.0 | 0.00 | 0.05 | 0.05 | 82 | 1020.2 |
| 20260902171558 | 65 | 329 | 0.0 | 5.0 | 0.00 | 0.05 | 0.05 | 81 | 1020.4 |
| 20260902171041 | 65 | 313 | 1.0 | 5.0 | 0.00 | 0.05 | 0.05 | 81 | 1020.4 |
| 20260902170544 | 65 | 274 | 1.0 | 5.0 | 0.00 | 0.05 | 0.05 | 79 | 1020.2 |
| 20260902170104 | 65 | 347 | 1.0 | 6.0 | 0.00 | 0.05 | 0.05 | 80 | 1020.3 |
| 20260902165546 | 65 | 279 | 1.0 | 7.0 | 0.00 | 0.05 | 0.05 | 82 | 1020.2 |
| 20260902165045 | 65 | 330 | 1.0 | 7.0 | 0.00 | 0.05 | 0.05 | 82 | 1020.4 |
| 20260902164604 | 65 | 0 | 1.0 | 6.0 | 0.00 | 0.05 | 0.05 | 80 | 1020.5 |
| 20260902164044 | 65 | 309 | 1.0 | 6.0 | 0.00 | 0.05 | 0.05 | 81 | 1020.5 |
| 20260902163545 | 65 | 271 | 1.0 | 4.0 | 0.00 | 0.05 | 0.05 | 82 | 1020.6 |
| 20260902163055 | 64 | 323 | 1.0 | 3.0 | 0.00 | 0.05 | 0.05 | 81 | 1020.7 |
| 20260902162545 | 64 | 307 | 1.0 | 3.0 | 0.00 | 0.05 | 0.05 | 81 | 1020.7 |
| 20260902162045 | 64 | 309 | 1.0 | 3.0 | 0.00 | 0.05 | 0.05 | 81 | 1020.8 |
| 20260902161604 | 64 | 267 | 0.0 | 5.0 | 0.00 | 0.05 | 0.05 | 85 | 1020.7 |
| 20260902161045 | 63 | 319 | 0.0 | 7.0 | 0.00 | 0.05 | 0.05 | 84 | 1020.7 |
| 20260902160544 | 63 | 298 | 1.0 | 7.0 | 0.00 | 0.05 | 0.05 | 82 | 1020.8 |
| 20260902160059 | 63 | 0 | 1.0 | 7.0 | 0.00 | 0.05 | 0.05 | 83 | 1020.8 |
| 20260902155544 | 63 | 354 | 1.0 | 3.0 | 0.00 | 0.05 | 0.05 | 83 | 1020.7 |
| 20260902155045 | 63 | 293 | 0.0 | 2.0 | 0.00 | 0.05 | 0.05 | 85 | 1020.7 |
| 20260902154556 | 63 | 297 | 0.0 | 4.0 | 0.00 | 0.05 | 0.05 | 84 | 1020.7 |
| 20260902154045 | 63 | 295 | 1.0 | 4.0 | 0.00 | 0.05 | 0.05 | 85 | 1020.7 |
| 20260902153545 | 62 | 288 | 0.0 | 2.0 | 0.00 | 0.05 | 0.05 | 87 | 1020.8 |
| 20260902153113 | 62 | 278 | 0.0 | 2.0 | 0.00 | 0.05 | 0.05 | 87 | 1021.0 |
| 20260902152544 | 62 | 0 | 0.0 | 4.0 | 0.00 | 0.05 | 0.05 | 86 | 1021.0 |
| 20260902152045 | 62 | 250 | 0.0 | 4.0 | 0.00 | 0.05 | 0.05 | 87 | 1021.1 |
| 20260902151558 | 62 | 160 | 0.0 | 4.0 | 0.00 | 0.05 | 0.05 | 88 | 1021.1 |
| 20260902151044 | 62 | 302 | 0.0 | 4.0 | 0.00 | 0.05 | 0.05 | 87 | 1021.0 |
| 20260902150546 | 62 | 87 | 0.0 | 4.0 | 0.00 | 0.05 | 0.05 | 89 | 1021.0 |
| 20260902150056 | 62 | 70 | 0.0 | 3.0 | 0.00 | 0.05 | 0.05 | 87 | 1021.4 |
| 20260902145545 | 61 | 333 | 0.0 | 3.0 | 0.00 | 0.05 | 0.05 | 87 | 1021.4 |
| 20260902145046 | 61 | 33 | 1.0 | 4.0 | 0.00 | 0.05 | 0.05 | 89 | 1021.4 |
| 20260902144602 | 62 | 8 | 0.0 | 4.0 | 0.00 | 0.05 | 0.05 | 88 | 1021.5 |
| 20260902144045 | 62 | 286 | 0.0 | 4.0 | 0.00 | 0.05 | 0.05 | 88 | 1021.3 |
| 20260902143547 | 62 | 338 | 1.0 | 4.0 | 0.00 | 0.05 | 0.05 | 87 | 1021.2 |
| 20260902143055 | 62 | 319 | 0.0 | 4.0 | 0.00 | 0.05 | 0.05 | 88 | 1021.4 |
| 20260902142546 | 61 | 85 | 1.0 | 4.0 | 0.00 | 0.05 | 0.05 | 89 | 1021.1 |
| 20260902142045 | 61 | 333 | 1.0 | 3.0 | 0.00 | 0.05 | 0.05 | 89 | 1021.0 |
| 20260902141602 | 61 | 324 | 0.0 | 3.0 | 0.00 | 0.05 | 0.05 | 91 | 1020.8 |
| 20260902141044 | 61 | 360 | 0.0 | 8.0 | 0.00 | 0.05 | 0.05 | 91 | 1021.0 |
| 20260902140545 | 61 | 49 | 0.0 | 8.0 | 0.00 | 0.05 | 0.05 | 90 | 1021.0 |
| 20260902135545 | 61 | 283 | 0.0 | 3.0 | 0.00 | 0.07 | 0.05 | 91 | 1020.9 |
| 20260902135045 | 61 | 0 | 0.0 | 3.0 | 0.00 | 0.07 | 0.05 | 90 | 1020.8 |
| 20260902134600 | 61 | 281 | 0.0 | 3.0 | 0.00 | 0.07 | 0.05 | 91 | 1020.8 |
| 20260902134044 | 61 | 257 | 0.0 | 3.0 | 0.00 | 0.07 | 0.05 | 91 | 1020.8 |
| 20260902133545 | 61 | 12 | 1.0 | 3.0 | 0.00 | 0.07 | 0.05 | 92 | 1020.8 |
| 20260902133103 | 61 | 325 | 1.0 | 3.0 | 0.00 | 0.07 | 0.05 | 90 | 1020.7 |
| 20260902132546 | 61 | 278 | 0.0 | 4.0 | 0.00 | 0.07 | 0.05 | 92 | 1020.8 |
| 20260902132044 | 60 | 292 | 0.0 | 4.0 | 0.00 | 0.07 | 0.05 | 92 | 1020.5 |
| 20260902131600 | 60 | 0 | 1.0 | 4.0 | 0.00 | 0.07 | 0.05 | 93 | 1020.7 |
| 20260902131046 | 60 | 308 | 0.0 | 2.0 | 0.00 | 0.07 | 0.05 | 94 | 1020.5 |
| 20260902130546 | 60 | 309 | 0.0 | 1.0 | 0.00 | 0.07 | 0.05 | 95 | 1020.6 |
| 20260902125546 | 59 | 0 | 0.0 | 1.0 | 0.00 | 0.07 | 0.05 | 95 | 1020.5 |
| 20260902125045 | 59 | 295 | 0.0 | 2.0 | 0.00 | 0.07 | 0.05 | 95 | 1020.6 |
| 20260902124555 | 59 | 0 | 0.0 | 2.0 | 0.00 | 0.07 | 0.05 | 95 | 1020.7 |
| 20260902124044 | 59 | 0 | 0.0 | 2.0 | 0.00 | 0.07 | 0.05 | 95 | 1020.7 |
| 20260902123544 | 58 | 347 | 0.0 | 2.0 | 0.00 | 0.07 | 0.05 | 96 | 1020.8 |
| 20260902123106 | 58 | 351 | 0.0 | 2.0 | 0.00 | 0.07 | 0.05 | 96 | 1020.8 |
| 20260902122546 | 58 | 323 | 0.0 | 1.0 | 0.00 | 0.07 | 0.05 | 96 | 1020.8 |
| 20260902122043 | 58 | 269 | 0.0 | 3.0 | 0.00 | 0.07 | 0.05 | 96 | 1020.8 |
| 20260902121608 | 58 | 0 | 0.0 | 3.0 | 0.00 | 0.07 | 0.05 | 96 | 1020.9 |
| 20260902121045 | 58 | 266 | 0.0 | 3.0 | 0.00 | 0.07 | 0.05 | 96 | 1020.8 |
| 20260902120547 | 58 | 319 | 0.0 | 2.0 | 0.00 | 0.07 | 0.05 | 96 | 1020.8 |
| 20260902120104 | 58 | 15 | 0.0 | 2.0 | 0.00 | 0.07 | 0.05 | 96 | 1020.8 |
| 20260902115544 | 58 | 0 | 0.0 | 2.0 | 0.00 | 0.09 | 0.05 | 97 | 1020.7 |
| 20260902115044 | 58 | 0 | 0.0 | 2.0 | 0.00 | 0.09 | 0.05 | 97 | 1020.7 |
| 20260902114556 | 58 | 0 | 0.0 | 2.0 | 0.00 | 0.09 | 0.05 | 97 | 1020.8 |
| 20260902114044 | 57 | 303 | 0.0 | 2.0 | 0.00 | 0.09 | 0.05 | 97 | 1020.8 |
| 20260902113545 | 57 | 273 | 0.0 | 2.0 | 0.00 | 0.09 | 0.05 | 97 | 1020.8 |
| 20260902113107 | 57 | 68 | 0.0 | 3.0 | 0.00 | 0.09 | 0.05 | 97 | 1020.9 |
| 20260902112545 | 57 | 37 | 0.0 | 3.0 | 0.00 | 0.09 | 0.05 | 97 | 1020.8 |
| 20260902112044 | 57 | 330 | 0.0 | 2.0 | 0.00 | 0.09 | 0.05 | 97 | 1020.8 |
| 20260902111556 | 57 | 0 | 0.0 | 2.0 | 0.00 | 0.09 | 0.05 | 97 | 1020.9 |
| 20260902111045 | 57 | 0 | 0.0 | 2.0 | 0.00 | 0.09 | 0.05 | 97 | 1021.1 |
| 20260902110546 | 57 | 0 | 0.0 | 2.0 | 0.00 | 0.09 | 0.05 | 97 | 1021.0 |
| 20260902110059 | 57 | 0 | 0.0 | 2.0 | 0.00 | 0.09 | 0.05 | 97 | 1021.0 |
| 20260902105542 | 57 | 0 | 0.0 | 2.0 | 0.00 | 0.10 | 0.05 | 97 | 1020.8 |
| 20260902105046 | 57 | 0 | 0.0 | 2.0 | 0.00 | 0.10 | 0.05 | 97 | 1020.9 |
| 20260902104609 | 57 | 317 | 0.0 | 5.0 | 0.00 | 0.10 | 0.05 | 97 | 1020.7 |
| 20260902104047 | 57 | 316 | 0.0 | 5.0 | 0.00 | 0.10 | 0.05 | 97 | 1020.7 |
| 20260902103546 | 57 | 327 | 0.0 | 2.0 | 0.00 | 0.10 | 0.05 | 97 | 1020.6 |
| 20260902103101 | 57 | 319 | 0.0 | 2.0 | 0.00 | 0.10 | 0.05 | 97 | 1020.6 |
| 20260902102549 | 57 | 319 | 0.0 | 2.0 | 0.00 | 0.10 | 0.05 | 97 | 1020.6 |
| 20260902102045 | 57 | 0 | 0.0 | 4.0 | 0.00 | 0.10 | 0.05 | 97 | 1020.7 |
| 20260902101556 | 57 | 0 | 0.0 | 4.0 | 0.00 | 0.10 | 0.05 | 97 | 1020.7 |
| 20260902101047 | 57 | 345 | 0.0 | 2.0 | 0.00 | 0.10 | 0.05 | 97 | 1020.7 |
| 20260902100545 | 57 | 0 | 0.0 | 2.0 | 0.00 | 0.10 | 0.05 | 97 | 1020.7 |
| 20260902100057 | 57 | 293 | 0.0 | 2.0 | 0.00 | 0.10 | 0.05 | 97 | 1020.5 |
| 20260902095546 | 57 | 305 | 0.0 | 2.0 | 0.00 | 0.10 | 0.05 | 97 | 1020.3 |
| 20260902095050 | 57 | 0 | 0.0 | 2.0 | 0.00 | 0.10 | 0.05 | 97 | 1020.6 |
| 20260902094552 | 57 | 0 | 0.0 | 2.0 | 0.00 | 0.10 | 0.05 | 97 | 1020.4 |
| 20260902094045 | 57 | 304 | 0.0 | 2.0 | 0.00 | 0.10 | 0.05 | 97 | 1020.4 |
| 20260902093544 | 57 | 0 | 0.0 | 2.0 | 0.00 | 0.10 | 0.05 | 97 | 1020.4 |
| 20260902093057 | 57 | 160 | 0.0 | 2.0 | 0.00 | 0.10 | 0.05 | 97 | 1020.3 |
| 20260902092545 | 58 | 321 | 0.0 | 2.0 | 0.00 | 0.10 | 0.05 | 97 | 1020.4 |
| 20260902092047 | 58 | 0 | 0.0 | 2.0 | 0.00 | 0.10 | 0.05 | 97 | 1020.4 |
| 20260902091605 | 58 | 0 | 0.0 | 1.0 | 0.00 | 0.10 | 0.05 | 97 | 1020.5 |
| 20260902091044 | 58 | 0 | 0.0 | 1.0 | 0.00 | 0.10 | 0.05 | 97 | 1020.4 |
| 20260902090547 | 58 | 307 | 0.0 | 1.0 | 0.00 | 0.10 | 0.05 | 97 | 1020.4 |
| 20260902090058 | 58 | 0 | 0.0 | 3.0 | 0.00 | 0.10 | 0.05 | 97 | 1020.4 |
| 20260902085544 | 58 | 0 | 0.0 | 3.0 | 0.00 | 0.10 | 0.05 | 97 | 1020.3 |
| 20260902085045 | 58 | 295 | 0.0 | 2.0 | 0.00 | 0.10 | 0.05 | 97 | 1020.2 |
| 20260902084605 | 58 | 293 | 0.0 | 3.0 | 0.00 | 0.10 | 0.05 | 97 | 1020.1 |
| 20260902084045 | 58 | 0 | 0.0 | 3.0 | 0.00 | 0.10 | 0.05 | 97 | 1020.1 |
| 20260902083546 | 58 | 303 | 0.0 | 3.0 | 0.00 | 0.10 | 0.05 | 97 | 1020.1 |
| 20260902083112 | 58 | 302 | 0.0 | 2.0 | 0.00 | 0.10 | 0.05 | 97 | 1020.2 |
| 20260902082545 | 58 | 0 | 0.0 | 2.0 | 0.00 | 0.10 | 0.05 | 97 | 1020.3 |
| 20260902082045 | 58 | 0 | 0.0 | 3.0 | 0.00 | 0.10 | 0.05 | 97 | 1020.3 |
| 20260902081553 | 58 | 313 | 0.0 | 3.0 | 0.00 | 0.10 | 0.05 | 97 | 1020.1 |
| 20260902081047 | 58 | 311 | 0.0 | 3.0 | 0.00 | 0.10 | 0.05 | 97 | 1020.0 |
| 20260902080545 | 58 | 242 | 0.0 | 3.0 | 0.00 | 0.10 | 0.05 | 97 | 1020.2 |
| 20260902080050 | 58 | 8 | 0.0 | 2.0 | 0.00 | 0.10 | 0.05 | 97 | 1020.1 |
| 20260902075549 | 58 | 11 | 1.0 | 2.0 | 0.00 | 0.10 | 0.05 | 97 | 1020.0 |
| 20260902075045 | 58 | 0 | 0.0 | 2.0 | 0.00 | 0.10 | 0.05 | 97 | 1020.0 |
| 20260902074616 | 58 | 0 | 0.0 | 2.0 | 0.00 | 0.10 | 0.05 | 97 | 1020.0 |
| 20260902074046 | 58 | 324 | 0.0 | 2.0 | 0.00 | 0.10 | 0.05 | 97 | 1019.9 |
| 20260902073544 | 58 | 324 | 0.0 | 2.0 | 0.00 | 0.10 | 0.05 | 97 | 1020.1 |
| 20260902073057 | 58 | 0 | 0.0 | 2.0 | 0.00 | 0.10 | 0.05 | 97 | 1020.2 |
| 20260902072547 | 58 | 0 | 0.0 | 2.0 | 0.00 | 0.10 | 0.05 | 97 | 1020.2 |
| 20260902072042 | 58 | 0 | 0.0 | 4.0 | 0.00 | 0.10 | 0.05 | 97 | 1020.2 |
| 20260902071554 | 59 | 323 | 0.0 | 4.0 | 0.00 | 0.10 | 0.05 | 97 | 1020.1 |
| 20260902071045 | 59 | 340 | 0.0 | 2.0 | 0.00 | 0.10 | 0.05 | 97 | 1020.0 |
| 20260902070545 | 59 | 238 | 0.0 | 5.0 | 0.00 | 0.10 | 0.05 | 97 | 1020.1 |
| 20260902070100 | 59 | 0 | 1.0 | 5.0 | 0.00 | 0.10 | 0.05 | 97 | 1020.1 |
| 20260902065546 | 59 | 0 | 0.0 | 2.0 | 0.00 | 0.10 | 0.05 | 97 | 1020.0 |
| 20260902065046 | 59 | 309 | 0.0 | 2.0 | 0.00 | 0.10 | 0.05 | 97 | 1020.0 |
| 20260902064557 | 59 | 309 | 0.0 | 2.0 | 0.00 | 0.10 | 0.05 | 97 | 1020.0 |
| 20260902064047 | 59 | 0 | 0.0 | 2.0 | 0.00 | 0.10 | 0.05 | 97 | 1020.1 |
| 20260902063545 | 59 | 309 | 0.0 | 2.0 | 0.00 | 0.10 | 0.05 | 97 | 1020.1 |
| 20260902063101 | 59 | 308 | 0.0 | 1.0 | 0.00 | 0.10 | 0.05 | 97 | 1020.1 |
| 20260902062546 | 59 | 356 | 0.0 | 1.0 | 0.01 | 0.10 | 0.05 | 97 | 1020.0 |
| 20260902062045 | 59 | 356 | 0.0 | 1.0 | 0.01 | 0.10 | 0.05 | 97 | 1020.0 |
| 20260902061600 | 59 | 346 | 0.0 | 2.0 | 0.01 | 0.10 | 0.05 | 97 | 1020.0 |
| 20260902061045 | 59 | 0 | 0.0 | 2.0 | 0.01 | 0.10 | 0.05 | 97 | 1020.0 |
| 20260902060548 | 59 | 0 | 0.0 | 2.0 | 0.01 | 0.10 | 0.05 | 97 | 1019.9 |
| 20260902060106 | 59 | 0 | 0.0 | 2.0 | 0.01 | 0.10 | 0.05 | 97 | 1019.9 |
| 20260902055544 | 59 | 25 | 0.0 | 2.0 | 0.01 | 0.10 | 0.05 | 97 | 1019.8 |
| 20260902055045 | 59 | 0 | 0.0 | 2.0 | 0.01 | 0.10 | 0.05 | 97 | 1019.9 |
| 20260902054610 | 59 | 306 | 0.0 | 2.0 | 0.01 | 0.10 | 0.05 | 97 | 1019.8 |
| 20260902054045 | 59 | 306 | 0.0 | 2.0 | 0.01 | 0.10 | 0.05 | 97 | 1019.8 |
| 20260902053546 | 59 | 302 | 0.0 | 4.0 | 0.02 | 0.10 | 0.05 | 97 | 1019.9 |
| 20260902053112 | 59 | 0 | 0.0 | 4.0 | 0.02 | 0.10 | 0.05 | 97 | 1019.7 |
| 20260902052546 | 59 | 38 | 0.0 | 1.0 | 0.02 | 0.09 | 0.04 | 97 | 1019.5 |
| 20260902052045 | 59 | 0 | 0.0 | 1.0 | 0.03 | 0.09 | 0.04 | 97 | 1019.5 |
| 20260902051604 | 59 | 0 | 0.0 | 1.0 | 0.04 | 0.09 | 0.04 | 97 | 1019.6 |
| 20260902051043 | 59 | 298 | 0.0 | 1.0 | 0.04 | 0.09 | 0.04 | 97 | 1019.7 |
| 20260902050548 | 59 | 298 | 0.0 | 2.0 | 0.04 | 0.09 | 0.04 | 97 | 1019.6 |
| 20260902050105 | 60 | 0 | 0.0 | 3.0 | 0.04 | 0.09 | 0.04 | 97 | 1019.8 |
| 20260902045545 | 60 | 298 | 0.0 | 3.0 | 0.04 | 0.09 | 0.04 | 97 | 1019.7 |
| 20260902045047 | 60 | 300 | 0.0 | 2.0 | 0.04 | 0.09 | 0.04 | 96 | 1019.7 |
| 20260902044601 | 60 | 301 | 0.0 | 2.0 | 0.04 | 0.09 | 0.04 | 96 | 1019.6 |
| 20260902044045 | 60 | 0 | 0.0 | 1.0 | 0.04 | 0.09 | 0.04 | 96 | 1019.6 |
| 20260902043545 | 60 | 0 | 0.0 | 1.0 | 0.03 | 0.08 | 0.03 | 96 | 1019.4 |
| 20260902043119 | 60 | 0 | 0.0 | 1.0 | 0.03 | 0.08 | 0.03 | 96 | 1019.5 |
| 20260902042549 | 60 | 0 | 0.0 | 2.0 | 0.02 | 0.07 | 0.02 | 96 | 1019.6 |
| 20260902042045 | 60 | 0 | 0.0 | 2.0 | 0.01 | 0.06 | 0.01 | 96 | 1019.6 |
| 20260902041558 | 60 | 307 | 0.0 | 1.0 | 0.00 | 0.05 | 0.00 | 96 | 1019.5 |
| 20260902041044 | 60 | 0 | 0.0 | 0.0 | 0.00 | 0.05 | 0.00 | 96 | 1019.4 |
| 20260902040545 | 60 | 0 | 0.0 | 1.0 | 0.00 | 0.05 | 0.00 | 96 | 1019.3 |
| 20260902040057 | 60 | 0 | 0.0 | 1.0 | 0.00 | 0.05 | 0.00 | 96 | 1019.3 |
| 20260902035545 | 60 | 0 | 0.0 | 2.0 | 0.00 | 0.05 | 0.05 | 96 | 1019.3 |
| 20260902035047 | 60 | 307 | 0.0 | 2.0 | 0.00 | 0.05 | 0.05 | 96 | 1019.2 |
| 20260902034601 | 60 | 0 | 0.0 | 2.0 | 0.00 | 0.05 | 0.05 | 96 | 1019.1 |
| 20260902034044 | 60 | 0 | 0.0 | 1.0 | 0.00 | 0.05 | 0.05 | 96 | 1019.1 |
| 20260902033544 | 60 | 0 | 0.0 | 1.0 | 0.00 | 0.05 | 0.05 | 96 | 1019.1 |
| 20260902033054 | 60 | 306 | 0.0 | 1.0 | 0.00 | 0.05 | 0.05 | 96 | 1019.0 |
| 20260902032546 | 60 | 0 | 0.0 | 2.0 | 0.00 | 0.05 | 0.05 | 96 | 1019.0 |
| 20260902032045 | 60 | 0 | 0.0 | 2.0 | 0.00 | 0.05 | 0.05 | 96 | 1019.0 |
| 20260902031559 | 60 | 0 | 0.0 | 2.0 | 0.00 | 0.05 | 0.05 | 96 | 1018.8 |
| 20260902031044 | 60 | 0 | 0.0 | 2.0 | 0.00 | 0.05 | 0.05 | 95 | 1018.9 |
| 20260902030545 | 60 | 296 | 0.0 | 2.0 | 0.00 | 0.05 | 0.05 | 95 | 1018.7 |
| 20260902030127 | 60 | 0 | 0.0 | 1.0 | 0.00 | 0.05 | 0.05 | 95 | 1018.7 |
| 20260902025545 | 60 | 0 | 0.0 | 2.0 | 0.00 | 0.05 | 0.05 | 95 | 1018.9 |
| 20260902025046 | 60 | 0 | 0.0 | 2.0 | 0.00 | 0.05 | 0.05 | 95 | 1018.9 |
| 20260902024558 | 60 | 294 | 0.0 | 1.0 | 0.00 | 0.05 | 0.05 | 95 | 1018.8 |
| 20260902024045 | 60 | 0 | 0.0 | 1.0 | 0.00 | 0.05 | 0.05 | 95 | 1019.0 |
| 20260902023544 | 60 | 293 | 0.0 | 1.0 | 0.00 | 0.05 | 0.05 | 95 | 1019.0 |
| 20260902023108 | 60 | 0 | 0.0 | 1.0 | 0.00 | 0.05 | 0.05 | 95 | 1018.9 |
| 20260902022545 | 60 | 0 | 0.0 | 1.0 | 0.00 | 0.05 | 0.05 | 95 | 1018.9 |
| 20260902022045 | 60 | 0 | 0.0 | 1.0 | 0.00 | 0.05 | 0.05 | 95 | 1018.9 |
| 20260902021554 | 60 | 294 | 0.0 | 1.0 | 0.00 | 0.05 | 0.05 | 95 | 1019.0 |
| 20260902021049 | 60 | 293 | 0.0 | 1.0 | 0.00 | 0.05 | 0.05 | 95 | 1019.0 |
| 20260902020545 | 60 | 0 | 0.0 | 1.0 | 0.00 | 0.05 | 0.05 | 94 | 1018.9 |
| 20260902020057 | 60 | 0 | 0.0 | 1.0 | 0.00 | 0.05 | 0.05 | 94 | 1018.9 |
| 20260902015545 | 61 | 0 | 0.0 | 1.0 | 0.00 | 0.05 | 0.05 | 95 | 1019.0 |
| 20260902015045 | 61 | 294 | 0.0 | 1.0 | 0.00 | 0.05 | 0.05 | 95 | 1018.9 |
| 20260902014554 | 61 | 292 | 0.0 | 1.0 | 0.00 | 0.05 | 0.05 | 95 | 1018.9 |
| 20260902014045 | 61 | 0 | 0.0 | 1.0 | 0.00 | 0.05 | 0.05 | 95 | 1018.8 |
| 20260902013544 | 61 | 0 | 0.0 | 1.0 | 0.00 | 0.05 | 0.05 | 95 | 1018.8 |
| 20260902013054 | 61 | 0 | 0.0 | 1.0 | 0.00 | 0.05 | 0.05 | 95 | 1018.8 |
| 20260902012545 | 61 | 290 | 0.0 | 2.0 | 0.00 | 0.05 | 0.05 | 95 | 1018.9 |
| 20260902012045 | 61 | 0 | 0.0 | 2.0 | 0.00 | 0.05 | 0.05 | 95 | 1018.7 |
| 20260902011622 | 61 | 252 | 0.0 | 1.0 | 0.00 | 0.05 | 0.05 | 95 | 1018.4 |
| 20260902011045 | 61 | 0 | 0.0 | 0.0 | 0.00 | 0.05 | 0.05 | 95 | 1018.4 |
| 20260902010544 | 61 | 0 | 0.0 | 1.0 | 0.00 | 0.05 | 0.05 | 95 | 1018.5 |
| 20260902010057 | 61 | 0 | 0.0 | 1.0 | 0.00 | 0.05 | 0.05 | 95 | 1018.7 |
| 20260902005545 | 61 | 251 | 0.0 | 1.0 | 0.00 | 0.05 | 0.05 | 94 | 1018.4 |
| 20260902005045 | 61 | 0 | 0.0 | 1.0 | 0.00 | 0.05 | 0.05 | 94 | 1018.5 |
| 20260902004556 | 61 | 0 | 0.0 | 0.0 | 0.00 | 0.05 | 0.05 | 94 | 1018.6 |
| 20260902004045 | 61 | 0 | 0.0 | 1.0 | 0.00 | 0.05 | 0.05 | 94 | 1018.6 |
| 20260902003545 | 61 | 0 | 0.0 | 1.0 | 0.00 | 0.05 | 0.05 | 94 | 1018.7 |
| 20260902003111 | 61 | 0 | 0.0 | 1.0 | 0.00 | 0.05 | 0.05 | 94 | 1018.8 |
| 20260902002544 | 61 | 0 | 0.0 | 1.0 | 0.00 | 0.05 | 0.05 | 94 | 1018.7 |
| 20260902002045 | 61 | 0 | 0.0 | 1.0 | 0.00 | 0.05 | 0.05 | 94 | 1018.6 |
| 20260902001559 | 61 | 0 | 0.0 | 1.0 | 0.00 | 0.05 | 0.05 | 93 | 1018.5 |
| 20260902001046 | 62 | 0 | 0.0 | 1.0 | 0.00 | 0.05 | 0.05 | 93 | 1018.6 |
| 20260902000545 | 62 | 0 | 0.0 | 1.0 | 0.00 | 0.05 | 0.05 | 93 | 1018.6 |
| 20260901235545 | 62 | 0 | 0.0 | 1.0 | 0.00 | 0.05 | 0.05 | 93 | 1018.5 |
| 20260901235048 | 62 | 0 | 0.0 | 1.0 | 0.00 | 0.05 | 0.05 | 92 | 1018.5 |
| 20260901234601 | 62 | 0 | 0.0 | 1.0 | 0.00 | 0.05 | 0.05 | 92 | 1018.4 |
| 20260901234045 | 62 | 0 | 0.0 | 1.0 | 0.00 | 0.05 | 0.05 | 92 | 1018.4 |
| 20260901233545 | 62 | 0 | 0.0 | 1.0 | 0.00 | 0.05 | 0.05 | 92 | 1018.3 |
| 20260901233105 | 62 | 0 | 0.0 | 0.0 | 0.00 | 0.05 | 0.05 | 92 | 1018.4 |
| 20260901232544 | 62 | 0 | 0.0 | 1.0 | 0.00 | 0.05 | 0.05 | 91 | 1018.4 |
| 20260901232045 | 62 | 0 | 0.0 | 1.0 | 0.00 | 0.05 | 0.05 | 91 | 1018.3 |
| 20260901231617 | 62 | 0 | 0.0 | 1.0 | 0.00 | 0.05 | 0.05 | 91 | 1018.3 |
| 20260901231045 | 62 | 0 | 0.0 | 1.0 | 0.00 | 0.05 | 0.05 | 91 | 1018.3 |
| 20260901230545 | 62 | 0 | 0.0 | 1.0 | 0.00 | 0.05 | 0.05 | 90 | 1018.2 |
| 20260901230110 | 63 | 0 | 0.0 | 1.0 | 0.00 | 0.05 | 0.05 | 90 | 1018.1 |
| 20260901225546 | 63 | 0 | 0.0 | 1.0 | 0.00 | 0.05 | 0.05 | 90 | 1018.1 |
| 20260901225046 | 63 | 0 | 0.0 | 1.0 | 0.00 | 0.05 | 0.05 | 90 | 1017.9 |
| 20260901224600 | 63 | 0 | 0.0 | 1.0 | 0.00 | 0.05 | 0.05 | 90 | 1018.0 |
| 20260901224044 | 63 | 0 | 0.0 | 1.0 | 0.00 | 0.05 | 0.05 | 90 | 1018.0 |
| 20260901223548 | 63 | 0 | 0.0 | 1.0 | 0.00 | 0.05 | 0.05 | 89 | 1017.9 |
| 20260901223058 | 63 | 0 | 0.0 | 1.0 | 0.00 | 0.05 | 0.05 | 89 | 1018.0 |
| 20260901222544 | 63 | 0 | 0.0 | 1.0 | 0.00 | 0.05 | 0.05 | 89 | 1018.1 |
| 20260901222045 | 63 | 0 | 0.0 | 1.0 | 0.00 | 0.05 | 0.05 | 88 | 1018.1 |
| 20260901221617 | 64 | 0 | 0.0 | 1.0 | 0.00 | 0.05 | 0.05 | 88 | 1018.0 |
| 20260901221044 | 64 | 294 | 0.0 | 1.0 | 0.00 | 0.05 | 0.05 | 88 | 1017.9 |
| 20260901220548 | 64 | 0 | 0.0 | 1.0 | 0.00 | 0.05 | 0.05 | 87 | 1018.0 |
| 20260901220121 | 64 | 0 | 0.0 | 1.0 | 0.00 | 0.05 | 0.05 | 87 | 1018.0 |
| 20260901215545 | 64 | 0 | 0.0 | 1.0 | 0.00 | 0.05 | 0.05 | 88 | 1018.0 |
| 20260901215045 | 64 | 0 | 0.0 | 1.0 | 0.00 | 0.05 | 0.05 | 87 | 1017.9 |
| 20260901214556 | 64 | 0 | 0.0 | 1.0 | 0.00 | 0.05 | 0.05 | 86 | 1017.9 |
| 20260901214044 | 64 | 0 | 0.0 | 1.0 | 0.00 | 0.05 | 0.05 | 86 | 1018.0 |
| 20260901213544 | 64 | 0 | 0.0 | 1.0 | 0.00 | 0.05 | 0.05 | 86 | 1018.1 |
| 20260901213108 | 64 | 295 | 0.0 | 1.0 | 0.00 | 0.05 | 0.05 | 88 | 1018.1 |
| 20260901212545 | 64 | 0 | 0.0 | 1.0 | 0.00 | 0.05 | 0.05 | 87 | 1018.0 |
| 20260901212045 | 64 | 0 | 0.0 | 2.0 | 0.00 | 0.05 | 0.05 | 86 | 1017.9 |
| 20260901211553 | 64 | 0 | 0.0 | 2.0 | 0.00 | 0.05 | 0.05 | 88 | 1017.8 |
| 20260901211045 | 64 | 295 | 0.0 | 1.0 | 0.00 | 0.05 | 0.05 | 86 | 1017.8 |
| 20260901210545 | 64 | 0 | 0.0 | 3.0 | 0.00 | 0.05 | 0.05 | 88 | 1017.9 |
| 20260901210116 | 64 | 0 | 0.0 | 3.0 | 0.00 | 0.05 | 0.05 | 87 | 1017.7 |
| 20260901205545 | 64 | 0 | 0.0 | 3.0 | 0.00 | 0.05 | 0.05 | 86 | 1017.7 |
| 20260901205044 | 64 | 0 | 0.0 | 1.0 | 0.00 | 0.05 | 0.05 | 86 | 1017.7 |
| 20260901204608 | 64 | 0 | 0.0 | 1.0 | 0.00 | 0.05 | 0.05 | 86 | 1017.7 |